Location: Kielce
(50.8833°N, 20.6167°E)
Time: 18:55:01
(UTC+02:00)

Vanguard 1 - Visible Passes

Search period start: 11 April 2021 00:00
Search period end: 21 April 2021 00:00
Orbit: 648 x 3834 km, 34.3° (Epoch: 10 April)

Date Brightness Start Highest point End Pass type
(mag) Time Alt. Az. Time Alt. Az. Time Alt. Az.
11 Apr 13.1 20:27:09 10° W 20:48:10 44° SSW 21:02:29 15° SE visible
11 Apr 13.1 22:54:30 10° W 23:09:38 25° SW 23:15:10 21° SSW visible
12 Apr 13.1 20:48:20 10° W 21:08:46 41° SSW 21:22:05 17° SSE visible
12 Apr 13.3 23:16:53 10° W 23:29:35 20° SW 23:34:47 17° SSW visible
13 Apr 13.1 21:09:39 10° W 21:29:13 37° SSW 21:41:43 17° SSE visible
13 Apr 13.5 23:40:19 10° W 23:49:25 15° SW 23:54:25 13° SW visible
14 Apr 13.2 21:31:09 10° W 21:49:32 32° SW 22:01:21 16° S visible
15 Apr 13.4 19:26:39 10° W 19:47:25 45° SSW 20:05:54 10° SE visible
15 Apr 13.3 21:52:55 10° W 22:09:43 27° SW 22:21:01 15° S visible
16 Apr 13.5 19:47:45 10° W 20:08:04 42° SSW 20:26:06 10° SE visible
16 Apr 13.5 22:15:09 10° W 22:29:45 22° SW 22:40:42 12° S visible
17 Apr 13.5 20:08:59 10° W 20:28:37 38° SSW 20:46:01 10° SSE visible
17 Apr 13.6 22:38:16 10° W 22:49:40 17° SW 22:59:38 10° SSW visible
18 Apr 13.6 20:30:23 10° W 20:49:02 33° SW 21:05:39 10° SSE visible
18 Apr 13.8 23:03:46 10° WSW 23:09:27 12° WSW 23:14:46 10° SW visible
19 Apr 13.6 20:52:05 10° W 21:09:19 28° SW 21:24:51 10° S visible
20 Apr 13.7 21:14:12 10° W 21:29:29 23° SW 21:43:28 10° S visible
